,,Stat6,,Stat2,,Stat8,,Stat9,,Stat10,,Wind1,,Wind1,
time,status,PA1M_AVG,status,PR1M_SUM,status,RH1M_AVG,status,SR1M_AVG,status,TA1M_AVG,status,W1dAve1m,status,W1sAve1m,
2008-08-02, 00:00:00,VALID,917.664,VALID,0,VALID,100,VALID,0,VALID,17.9561,VALID,157,VALID,0,
2008-08-02, 00:01:00,VALID,917.686,VALID,0,VALID,100,VALID,-0.0169808,VALID,17.9857,VALID,158,VALID,0,
2008-08-02, 00:02:00,VALID,917.71,VALID,0,VALID,100,VALID,0,VALID,17.9755,VALID,158,VALID,0,
2008-08-02, 00:03:00,VALID,917.721,VALID,0,VALID,100,VALID,0,VALID,17.9435,VALID,158,VALID,0,
2008-08-02, 00:04:00,VALID,917.746,VALID,0,VALID,100,VALID,-0.0169808,VALID,17.875,VALID,158,VALID,0,
2008-08-02, 00:05:00,VALID,917.746,VALID,0,VALID,100,VALID,-0.0169808,VALID,17.8004,VALID,158,VALID,0,
2008-08-02, 00:06:00,VALID,917.747,VALID,0,VALID,100,VALID,-0.0169808,VALID,17.762,VALID,158,VALID,0,
2008-08-02, 00:07:00,VALID,917.734,VALID,0,VALID,100,VALID,-0.0169808,VALID,17.752,VALID,158,VALID,0,
2008-08-02, 00:08:00,VALID,917.742,VALID,0,VALID,100,VALID,-0.0339617,VALID,17.7754,VALID,158,VALID,0,
2008-08-02, 00:09:00,VALID,917.74,VALID,0,VALID,100,VALID,-0.0169808,VALID,17.7682,VALID,158,VALID,0,
2008-08-02, 00:10:00,VALID,917.739,VALID,0,VALID,100,VALID,-0.0169808,VALID,17.7779,VALID,158,VALID,0,
2008-08-02, 00:11:00,VALID,917.761,VALID,0,VALID,100,VALID,-0.0169808,VALID,17.7909,VALID,158,VALID,0,
2008-08-02, 00:12:00,VALID,917.774,VALID,0,VALID,100,VALID,0,VALID,17.7942,VALID,158,VALID,0,
2008-08-02, 00:13:00,VALID,917.794,VALID,0,VALID,100,VALID,0,VALID,17.8009,VALID,158,VALID,0,
2008-08-02, 00:14:00,VALID,917.796,VALID,0,VALID,100,VALID,-0.0169808,VALID,17.8199,VALID,158,VALID,0,
2008-08-02, 00:15:00,VALID,917.803,VALID,0,VALID,100,VALID,0,VALID,17.8365,VALID,158,VALID,0,
2008-08-02, 00:16:00,VALID,917.8,VALID,0,VALID,100,VALID,0,VALID,17.8268,VALID,158,VALID,0,
2008-08-02, 00:17:00,VALID,917.784,VALID,0,VALID,100,VALID,-0.0339617,VALID,17.8136,VALID,158,VALID,0,
2008-08-02, 00:18:00,VALID,917.794,VALID,0,VALID,100,VALID,0,VALID,17.7909,VALID,158,VALID,0,
2008-08-02, 00:19:00,VALID,917.8,VALID,0,VALID,100,VALID,0,VALID,17.7617,VALID,158,VALID,0,
2008-08-02, 00:20:00,VALID,917.811,VALID,0,VALID,100,VALID,0.0169808,VALID,17.7293,VALID,158,VALID,0,
2008-08-02, 00:21:00,VALID,917.83,VALID,0,VALID,100,VALID,0,VALID,17.6804,VALID,158,VALID,0,
2008-08-02, 00:22:00,VALID,917.838,VALID,0,VALID,100,VALID,0.0169808,VALID,17.6286,VALID,158,VALID,0,
2008-08-02, 00:23:00,VALID,917.864,VALID,0,VALID,100,VALID,0.0169808,VALID,17.6024,VALID,158,VALID,0,
2008-08-02, 00:24:00,VALID,917.856,VALID,0,VALID,100,VALID,0,VALID,17.6768,VALID,158,VALID,0,
2008-08-02, 00:25:00,VALID,917.874,VALID,0,VALID,100,VALID,0.0339617,VALID,17.7319,VALID,158,VALID,0,
2008-08-02, 00:26:00,VALID,917.893,VALID,0,VALID,100,VALID,0,VALID,17.7388,VALID,158,VALID,0,
2008-08-02, 00:27:00,VALID,917.878,VALID,0,VALID,100,VALID,0.0339617,VALID,17.7448,VALID,158,VALID,0,
2008-08-02, 00:28:00,VALID,917.873,VALID,0,VALID,100,VALID,0,VALID,17.7805,VALID,158,VALID,0,
2008-08-02, 00:29:00,VALID,917.881,VALID,0,VALID,100,VALID,0.0339617,VALID,17.677,VALID,158,VALID,0,
2008-08-02, 00:30:00,VALID,917.876,VALID,0,VALID,100,VALID,0,VALID,17.5797,VALID,158,VALID,0,
2008-08-02, 00:31:00,VALID,917.858,VALID,0,VALID,100,VALID,0.0509425,VALID,17.5017,VALID,158,VALID,0,
2008-08-02, 00:32:00,VALID,917.845,VALID,0,VALID,100,VALID,0.0169808,VALID,17.6024,VALID,158,VALID,0,
2008-08-02, 00:33:00,VALID,917.844,VALID,0,VALID,100,VALID,0.0169808,VALID,17.4887,VALID,158,VALID,0,
2008-08-02, 00:34:00,VALID,917.846,VALID,0,VALID,100,VALID,0,VALID,17.5313,VALID,158,VALID,0,
2008-08-02, 00:35:00,VALID,917.867,VALID,0,VALID,100,VALID,-0.0679233,VALID,17.5611,VALID,158,VALID,0,
2008-08-02, 00:36:00,VALID,917.901,VALID,0,VALID,100,VALID,-0.0849042,VALID,17.532,VALID,158,VALID,0,
2008-08-02, 00:37:00,VALID,917.909,VALID,0,VALID,100,VALID,-0.0679233,VALID,17.519,VALID,158,VALID,0,
2008-08-02, 00:38:00,VALID,917.875,VALID,0,VALID,100,VALID,-0.101885,VALID,17.5421,VALID,147,VALID,0,
2008-08-02, 00:39:00,VALID,917.866,VALID,0,VALID,100,VALID,-0.101885,VALID,17.597,VALID,133,VALID,0,
2008-08-02, 00:40:00,VALID,917.862,VALID,0,VALID,100,VALID,-0.0679233,VALID,17.6362,VALID,131,VALID,0,
2008-08-02, 00:41:00,VALID,917.855,VALID,0,VALID,100,VALID,-0.0679233,VALID,17.594,VALID,131,VALID,0,
2008-08-02, 00:42:00,VALID,917.865,VALID,0,VALID,100,VALID,-0.0849042,VALID,17.5391,VALID,169,VALID,0,
2008-08-02, 00:43:00,VALID,917.87,VALID,0,VALID,100,VALID,-0.101885,VALID,17.5292,VALID,171,VALID,0.249822,
2008-08-02, 00:44:00,VALID,917.877,VALID,0,VALID,100,VALID,-0.0849042,VALID,17.5644,VALID,154,VALID,0.0117188,
2008-08-02, 00:45:00,VALID,917.879,VALID,0,VALID,100,VALID,-0.0679233,VALID,17.62,VALID,145,VALID,0,
2008-08-02, 00:46:00,VALID,917.863,VALID,0,VALID,100,VALID,-0.0849042,VALID,17.6881,VALID,139,VALID,0,
2008-08-02, 00:47:00,VALID,917.832,VALID,0,VALID,100,VALID,-0.0679233,VALID,17.704,VALID,133,VALID,0,
2008-08-02, 00:48:00,VALID,917.82,VALID,0,VALID,100,VALID,-0.0849042,VALID,17.6679,VALID,130,VALID,0,
2008-08-02, 00:49:00,VALID,917.811,VALID,0,VALID,100,VALID,-0.101885,VALID,17.5289,VALID,130,VALID,0,
2008-08-02, 00:50:00,VALID,917.805,VALID,0,VALID,100,VALID,-0.101885,VALID,17.5382,VALID,130,VALID,0,
2008-08-02, 00:51:00,VALID,917.787,VALID,0,VALID,100,VALID,-0.0509425,VALID,17.5477,VALID,130,VALID,0,
2008-08-02, 00:52:00,VALID,917.763,VALID,0,VALID,100,VALID,-0.0509425,VALID,17.5674,VALID,130,VALID,0,
2008-08-02, 00:53:00,VALID,917.748,VALID,0,VALID,100,VALID,-0.0849042,VALID,17.5743,VALID,130,VALID,0,
2008-08-02, 00:54:00,VALID,917.721,VALID,0,VALID,100,VALID,-0.0849042,VALID,17.5255,VALID,134,VALID,0,
2008-08-02, 00:55:00,VALID,917.709,VALID,0,VALID,100,VALID,-0.0849042,VALID,17.4995,VALID,140,VALID,0,
2008-08-02, 00:56:00,VALID,917.695,VALID,0,VALID,100,VALID,-0.0849042,VALID,17.4903,VALID,142,VALID,0,
2008-08-02, 00:57:00,VALID,917.688,VALID,0,VALID,100,VALID,-0.0849042,VALID,17.4511,VALID,143,VALID,0,
2008-08-02, 00:58:00,VALID,917.683,VALID,0,VALID,100,VALID,-0.0679233,VALID,17.3895,VALID,144,VALID,0,
2008-08-02, 00:59:00,VALID,917.67,VALID,0,VALID,100,VALID,-0.0339617,VALID,17.3374,VALID,144,VALID,0,
2008-08-02, 01:00:00,VALID,917.666,VALID,0,VALID,100,VALID,-0.0679233,VALID,17.3217,VALID,145,VALID,0.200462,
2008-08-02, 01:01:00,VALID,917.658,VALID,0,VALID,100,VALID,-0.101885,VALID,17.2923,VALID,147,VALID,0.933694,
2008-08-02, 01:02:00,VALID,917.654,VALID,0,VALID,100,VALID,-0.118866,VALID,17.302,VALID,147,VALID,0.962891,
2008-08-02, 01:03:00,VALID,917.644,VALID,0,VALID,100,VALID,-0.0849042,VALID,17.289,VALID,145,VALID,0.645064,
2008-08-02, 01:04:00,VALID,917.663,VALID,0,VALID,100,VALID,-0.0849042,VALID,17.2471,VALID,139,VALID,0.747456,
2008-08-02, 01:05:00,VALID,917.679,VALID,0,VALID,100,VALID,-0.101885,VALID,17.1918,VALID,135,VALID,0.692255,
2008-08-02, 01:06:00,VALID,917.68,VALID,0,VALID,100,VALID,-0.0849042,VALID,17.1431,VALID,135,VALID,0.0480903,
2008-08-02, 01:07:00,VALID,917.681,VALID,0,VALID,100,VALID,-0.101885,VALID,17.1338,VALID,136,VALID,0.506479,
2008-08-02, 01:08:00,VALID,917.668,VALID,0,VALID,100,VALID,-0.101885,VALID,17.1466,VALID,142,VALID,0.722747,
2008-08-02, 01:09:00,VALID,917.66,VALID,0,VALID,100,VALID,-0.101885,VALID,17.1239,VALID,143,VALID,0.777344,
2008-08-02, 01:10:00,VALID,917.659,VALID,0,VALID,100,VALID,-0.0679233,VALID,17.1332,VALID,151,VALID,0.916921,
2008-08-02, 01:11:00,VALID,917.664,VALID,0,VALID,100,VALID,-0.101885,VALID,17.1589,VALID,162,VALID,0.887277,
2008-08-02, 01:12:00,VALID,917.657,VALID,0,VALID,100,VALID,-0.118866,VALID,17.1952,VALID,168,VALID,0.981213,
2008-08-02, 01:13:00,VALID,917.649,VALID,0,VALID,100,VALID,-0.0849042,VALID,17.2534,VALID,166,VALID,1.15263,
2008-08-02, 01:14:00,VALID,917.636,VALID,0,VALID,100,VALID,-0.101885,VALID,17.3182,VALID,164,VALID,0.998884,
2008-08-02, 01:15:00,VALID,917.63,VALID,0,VALID,100,VALID,-0.101885,VALID,17.364,VALID,168,VALID,0.918605,
2008-08-02, 01:16:00,VALID,917.6,VALID,0,VALID,100,VALID,-0.101885,VALID,17.3733,VALID,168,VALID,0.746875,
2008-08-02, 01:17:00,VALID,917.564,VALID,0,VALID,100,VALID,-0.0849042,VALID,17.364,VALID,160,VALID,0.997638,
2008-08-02, 01:18:00,VALID,917.572,VALID,0,VALID,100,VALID,-0.0849042,VALID,17.3506,VALID,157,VALID,1.06392,
2008-08-02, 01:19:00,VALID,917.575,VALID,0,VALID,100,VALID,-0.101885,VALID,17.3571,VALID,157,VALID,0.825694,
2008-08-02, 01:20:00,VALID,917.587,VALID,0,VALID,100,VALID,0,VALID,17.3368,VALID,157,VALID,0.314596,
2008-08-02, 01:21:00,VALID,917.599,VALID,0,VALID,100,VALID,0.0169808,VALID,17.3039,VALID,157,VALID,0.355945,
2008-08-02, 01:22:00,VALID,917.596,VALID,0,VALID,100,VALID,0.0339617,VALID,17.3005,VALID,157,VALID,0.540179,
2008-08-02, 01:23:00,VALID,917.569,VALID,0,VALID,100,VALID,0,VALID,17.2847,VALID,157,VALID,0.268914,
2008-08-02, 01:24:00,VALID,917.556,VALID,0,VALID,100,VALID,0,VALID,17.2616,VALID,154,VALID,0.709604,
2008-08-02, 01:25:00,VALID,917.532,VALID,0,VALID,100,VALID,0.0169808,VALID,17.2555,VALID,153,VALID,0.654344,
2008-08-02, 01:26:00,VALID,917.518,VALID,0,VALID,100,VALID,-0.0169808,VALID,17.2555,VALID,153,VALID,0.625,
2008-08-02, 01:27:00,VALID,917.511,VALID,0,VALID,100,VALID,-0.0169808,VALID,17.275,VALID,153,VALID,0.534896,
2008-08-02, 01:28:00,VALID,917.5,VALID,0,VALID,100,VALID,-0.0169808,VALID,17.2817,VALID,153,VALID,0.47202,
2008-08-02, 01:29:00,VALID,917.488,VALID,0,VALID,100,VALID,-0.0169808,VALID,17.2814,VALID,153,VALID,0.401414,
2008-08-02, 01:30:00,VALID,917.458,VALID,0,VALID,100,VALID,0.0169808,VALID,17.2845,VALID,153,VALID,0.0154474,
2008-08-02, 01:31:00,VALID,917.442,VALID,0,VALID,100,VALID,0.0169808,VALID,17.2812,VALID,153,VALID,0,
2008-08-02, 01:32:00,VALID,917.417,VALID,0,VALID,100,VALID,0,VALID,17.2942,VALID,153,VALID,0,
2008-08-02, 01:33:00,VALID,917.415,VALID,0,VALID,100,VALID,-0.0169808,VALID,17.2655,VALID,153,VALID,0,
2008-08-02, 01:34:00,VALID,917.417,VALID,0,VALID,100,VALID,0,VALID,17.2488,VALID,153,VALID,0,
2008-08-02, 01:35:00,VALID,917.434,VALID,0,VALID,100,VALID,-0.0509425,VALID,17.2657,VALID,153,VALID,0,
2008-08-02, 01:36:00,VALID,917.43,VALID,0,VALID,100,VALID,0,VALID,17.2685,VALID,153,VALID,0,
2008-08-02, 01:37:00,VALID,917.447,VALID,0,VALID,100,VALID,-0.0169808,VALID,17.2912,VALID,153,VALID,0,
2008-08-02, 01:38:00,VALID,917.448,VALID,0,VALID,100,VALID,0,VALID,17.3108,VALID,153,VALID,0,
2008-08-02, 01:39:00,VALID,917.446,VALID,0,VALID,100,VALID,-0.0169808,VALID,17.3234,VALID,153,VALID,0,
2008-08-02, 01:40:00,VALID,917.43,VALID,0,VALID,100,VALID,-0.0509425,VALID,17.3335,VALID,153,VALID,0,
2008-08-02, 01:41:00,VALID,917.432,VALID,0,VALID,100,VALID,-0.0169808,VALID,17.3173,VALID,153,VALID,0,
2008-08-02, 01:42:00,VALID,917.412,VALID,0,VALID,100,VALID,-0.0169808,VALID,17.3106,VALID,153,VALID,0,
2008-08-02, 01:43:00,VALID,917.412,VALID,0,VALID,100,VALID,0,VALID,17.3203,VALID,153,VALID,0,
2008-08-02, 01:44:00,VALID,917.406,VALID,0,VALID,100,VALID,0,VALID,17.3238,VALID,153,VALID,0,
2008-08-02, 01:45:00,VALID,917.411,VALID,0,VALID,100,VALID,-0.0169808,VALID,17.3206,VALID,152,VALID,0,
2008-08-02, 01:46:00,VALID,917.428,VALID,0,VALID,100,VALID,-0.0169808,VALID,17.2977,VALID,151,VALID,0,
2008-08-02, 01:47:00,VALID,917.433,VALID,0,VALID,100,VALID,0,VALID,17.2847,VALID,149,VALID,0,
2008-08-02, 01:48:00,VALID,917.437,VALID,0,VALID,100,VALID,0,VALID,17.2711,VALID,151,VALID,0,
2008-08-02, 01:49:00,VALID,917.433,VALID,0,VALID,100,VALID,-0.0169808,VALID,17.2616,VALID,147,VALID,0,
2008-08-02, 01:50:00,VALID,917.424,VALID,0,VALID,100,VALID,-0.0169808,VALID,17.2458,VALID,144,VALID,0,
2008-08-02, 01:51:00,VALID,917.423,VALID,0,VALID,100,VALID,-0.0169808,VALID,17.2261,VALID,144,VALID,0,
2008-08-02, 01:52:00,VALID,917.406,VALID,0,VALID,100,VALID,0,VALID,17.2097,VALID,144,VALID,0,
2008-08-02, 01:53:00,VALID,917.392,VALID,0,VALID,100,VALID,-0.0169808,VALID,17.2361,VALID,144,VALID,0,
2008-08-02, 01:54:00,VALID,917.38,VALID,0,VALID,100,VALID,-0.0509425,VALID,17.2194,VALID,144,VALID,0,
2008-08-02, 01:55:00,VALID,917.355,VALID,0,VALID,100,VALID,0,VALID,17.1967,VALID,144,VALID,0,
2008-08-02, 01:56:00,VALID,917.331,VALID,0,VALID,100,VALID,0,VALID,17.2032,VALID,144,VALID,0,
2008-08-02, 01:57:00,VALID,917.301,VALID,0,VALID,100,VALID,0,VALID,17.2062,VALID,157,VALID,0,
2008-08-02, 01:58:00,VALID,917.28,VALID,0,VALID,100,VALID,0,VALID,17.2062,VALID,154,VALID,0.733648,
2008-08-02, 01:59:00,VALID,917.268,VALID,0,VALID,100,VALID,0,VALID,17.2257,VALID,164,VALID,0.943314,
2008-08-02, 02:00:00,VALID,917.261,VALID,0,VALID,100,VALID,0.0169808,VALID,17.2384,VALID,153,VALID,1.0651,
2008-08-02, 02:01:00,VALID,917.272,VALID,0,VALID,100,VALID,0,VALID,17.2616,VALID,159,VALID,0.801599,
2008-08-02, 02:02:00,VALID,917.255,VALID,0,VALID,100,VALID,0,VALID,17.2252,VALID,160,VALID,0.786644,
2008-08-02, 02:03:00,VALID,917.24,VALID,0,VALID,100,VALID,0,VALID,17.2259,VALID,162,VALID,1.0483,
2008-08-02, 02:04:00,VALID,917.22,VALID,0,VALID,100,VALID,0,VALID,17.216,VALID,165,VALID,0.793786,
2008-08-02, 02:05:00,VALID,917.193,VALID,0,VALID,100,VALID,0.0169808,VALID,17.2127,VALID,169,VALID,0.828125,
2008-08-02, 02:06:00,VALID,917.166,VALID,0,VALID,100,VALID,0.0339617,VALID,17.1868,VALID,167,VALID,0.36101,
2008-08-02, 02:07:00,VALID,917.141,VALID,0,VALID,100,VALID,0.0169808,VALID,17.1449,VALID,159,VALID,0,
2008-08-02, 02:08:00,VALID,917.141,VALID,0,VALID,100,VALID,-0.0169808,VALID,17.0995,VALID,163,VALID,0,
2008-08-02, 02:09:00,VALID,917.111,VALID,0,VALID,100,VALID,0,VALID,17.0346,VALID,165,VALID,0,
2008-08-02, 02:10:00,VALID,917.109,VALID,0,VALID,100,VALID,-0.0169808,VALID,17.0083,VALID,165,VALID,0,
2008-08-02, 02:11:00,VALID,917.081,VALID,0,VALID,100,VALID,-0.0169808,VALID,16.9862,VALID,165,VALID,0,
2008-08-02, 02:12:00,VALID,917.084,VALID,0,VALID,100,VALID,-0.0339617,VALID,16.9864,VALID,165,VALID,0,
2008-08-02, 02:13:00,VALID,917.057,VALID,0,VALID,100,VALID,-0.0169808,VALID,16.9538,VALID,165,VALID,0,
2008-08-02, 02:14:00,VALID,917.047,VALID,0,VALID,100,VALID,0.0169808,VALID,16.9374,VALID,165,VALID,0,
2008-08-02, 02:15:00,VALID,917.038,VALID,0,VALID,100,VALID,0,VALID,16.8883,VALID,165,VALID,0,
2008-08-02, 02:16:00,VALID,917.042,VALID,0,VALID,100,VALID,0,VALID,16.8434,VALID,165,VALID,0,
2008-08-02, 02:17:00,VALID,917.026,VALID,0,VALID,100,VALID,0,VALID,16.7943,VALID,165,VALID,0,
2008-08-02, 02:18:00,VALID,917.023,VALID,0,VALID,100,VALID,0,VALID,16.785,VALID,159,VALID,0,
2008-08-02, 02:19:00,VALID,917.012,VALID,0,VALID,100,VALID,0,VALID,16.8207,VALID,155,VALID,0,
2008-08-02, 02:20:00,VALID,917.012,VALID,0,VALID,100,VALID,-0.0169808,VALID,16.8821,VALID,149,VALID,0,
2008-08-02, 02:21:00,VALID,917.015,VALID,0,VALID,100,VALID,-0.0169808,VALID,16.9536,VALID,147,VALID,0,
2008-08-02, 02:22:00,VALID,917.026,VALID,0,VALID,100,VALID,0,VALID,16.983,VALID,147,VALID,0,
2008-08-02, 02:23:00,VALID,917.023,VALID,0,VALID,100,VALID,0,VALID,17.0022,VALID,151,VALID,0,
2008-08-02, 02:24:00,VALID,917.012,VALID,0,VALID,100,VALID,-0.0339617,VALID,17.0251,VALID,153,VALID,0,
2008-08-02, 02:25:00,VALID,916.98,VALID,0,VALID,100,VALID,-0.0169808,VALID,17.0215,VALID,164,VALID,0,
2008-08-02, 02:26:00,VALID,916.962,VALID,0,VALID,100,VALID,-0.0169808,VALID,17.0186,VALID,168,VALID,0,
2008-08-02, 02:27:00,VALID,916.946,VALID,0,VALID,100,VALID,-0.0169808,VALID,17.0186,VALID,168,VALID,0,
2008-08-02, 02:28:00,VALID,916.946,VALID,0,VALID,100,VALID,-0.0169808,VALID,17.058,VALID,166,VALID,0,
2008-08-02, 02:29:00,VALID,916.953,VALID,0,VALID,100,VALID,0,VALID,17.0671,VALID,163,VALID,0,
2008-08-02, 02:30:00,VALID,916.929,VALID,0,VALID,100,VALID,-0.0509425,VALID,17.0476,VALID,163,VALID,0,
2008-08-02, 02:31:00,VALID,916.92,VALID,0,VALID,100,VALID,0,VALID,17.0316,VALID,162,VALID,0,
2008-08-02, 02:32:00,VALID,916.899,VALID,0,VALID,100,VALID,0,VALID,16.9921,VALID,161,VALID,0,
2008-08-02, 02:33:00,VALID,916.874,VALID,0,VALID,100,VALID,-0.0169808,VALID,17.0057,VALID,160,VALID,0,
2008-08-02, 02:34:00,VALID,916.86,VALID,0,VALID,100,VALID,0,VALID,17.0057,VALID,160,VALID,0,
2008-08-02, 02:35:00,VALID,916.845,VALID,0,VALID,100,VALID,0.0169808,VALID,17.0476,VALID,163,VALID,0,
2008-08-02, 02:36:00,VALID,916.842,VALID,0,VALID,100,VALID,-0.0169808,VALID,17.0796,VALID,163,VALID,0,
2008-08-02, 02:37:00,VALID,916.846,VALID,0,VALID,100,VALID,-0.0339617,VALID,17.1062,VALID,162,VALID,0,
2008-08-02, 02:38:00,VALID,916.852,VALID,0,VALID,100,VALID,-0.0169808,VALID,17.1222,VALID,158,VALID,0,
2008-08-02, 02:39:00,VALID,916.852,VALID,0,VALID,100,VALID,-0.0169808,VALID,17.1256,VALID,156,VALID,0,
2008-08-02, 02:40:00,VALID,916.853,VALID,0,VALID,100,VALID,0.0169808,VALID,17.115,VALID,156,VALID,0,
2008-08-02, 02:41:00,VALID,916.854,VALID,0,VALID,100,VALID,-0.0169808,VALID,17.0988,VALID,152,VALID,0.437872,
2008-08-02, 02:42:00,VALID,916.844,VALID,0,VALID,100,VALID,0,VALID,17.099,VALID,150,VALID,0.569336,
2008-08-02, 02:43:00,VALID,916.848,VALID,0,VALID,100,VALID,0,VALID,17.099,VALID,150,VALID,1.09718,
2008-08-02, 02:44:00,VALID,916.845,VALID,0,VALID,100,VALID,0,VALID,17.1189,VALID,152,VALID,1.21431,
2008-08-02, 02:45:00,VALID,916.848,VALID,0,VALID,100,VALID,0,VALID,17.128,VALID,154,VALID,0.0473958,
2008-08-02, 02:46:00,VALID,916.841,VALID,0,VALID,100,VALID,0,VALID,17.1382,VALID,155,VALID,0,
2008-08-02, 02:47:00,VALID,916.825,VALID,0,VALID,100,VALID,0.0169808,VALID,17.1477,VALID,158,VALID,0,
2008-08-02, 02:48:00,VALID,916.805,VALID,0,VALID,100,VALID,0.0169808,VALID,17.1701,VALID,158,VALID,0,
2008-08-02, 02:49:00,VALID,916.781,VALID,0,VALID,100,VALID,-0.0339617,VALID,17.187,VALID,153,VALID,0,
2008-08-02, 02:50:00,VALID,916.752,VALID,0,VALID,100,VALID,-0.101885,VALID,17.1915,VALID,151,VALID,0,
2008-08-02, 02:51:00,VALID,916.739,VALID,0,VALID,100,VALID,-0.101885,VALID,17.1943,VALID,151,VALID,0.681108,
2008-08-02, 02:52:00,VALID,916.735,VALID,0,VALID,100,VALID,-0.0849042,VALID,17.2337,VALID,156,VALID,1.23474,
2008-08-02, 02:53:00,VALID,916.731,VALID,0,VALID,100,VALID,-0.101885,VALID,17.2527,VALID,156,VALID,1.10901,
2008-08-02, 02:54:00,VALID,916.726,VALID,0,VALID,100,VALID,-0.118866,VALID,17.2761,VALID,167,VALID,0.861555,
2008-08-02, 02:55:00,VALID,916.721,VALID,0,VALID,100,VALID,-0.101885,VALID,17.2821,VALID,158,VALID,0.65439,
2008-08-02, 02:56:00,VALID,916.733,VALID,0,VALID,100,VALID,-0.101885,VALID,17.2856,VALID,158,VALID,0.00230824,
2008-08-02, 02:57:00,VALID,916.724,VALID,0,VALID,100,VALID,-0.118866,VALID,17.2758,VALID,158,VALID,0,
2008-08-02, 02:58:00,VALID,916.71,VALID,0,VALID,100,VALID,-0.118866,VALID,17.2754,VALID,158,VALID,0,
2008-08-02, 02:59:00,VALID,916.692,VALID,0,VALID,99.9837,VALID,-0.152827,VALID,17.2469,VALID,158,VALID,0,
2008-08-02, 03:00:00,VALID,916.667,VALID,0,VALID,99.9359,VALID,-0.101885,VALID,17.1366,VALID,158,VALID,0,
2008-08-02, 03:01:00,VALID,916.657,VALID,0,VALID,100,VALID,-0.118866,VALID,17.104,VALID,158,VALID,0,
2008-08-02, 03:02:00,VALID,916.642,VALID,0,VALID,100,VALID,-0.118866,VALID,17.1044,VALID,158,VALID,0,
2008-08-02, 03:03:00,VALID,916.634,VALID,0,VALID,100,VALID,-0.101885,VALID,17.0811,VALID,158,VALID,0,
2008-08-02, 03:04:00,VALID,916.639,VALID,0,VALID,100,VALID,-0.0679233,VALID,17.0707,VALID,158,VALID,0,
2008-08-02, 03:05:00,VALID,916.638,VALID,0,VALID,100,VALID,0,VALID,17.0344,VALID,158,VALID,0,
2008-08-02, 03:06:00,VALID,916.655,VALID,0,VALID,100,VALID,0,VALID,16.9566,VALID,158,VALID,0,
2008-08-02, 03:07:00,VALID,916.656,VALID,0,VALID,99.9977,VALID,0,VALID,16.879,VALID,158,VALID,0,
2008-08-02, 03:08:00,VALID,916.646,VALID,0,VALID,99.8362,VALID,0.0169808,VALID,16.8008,VALID,158,VALID,0,
2008-08-02, 03:09:00,VALID,916.643,VALID,0,VALID,99.7841,VALID,0.0169808,VALID,16.733,VALID,158,VALID,0,
2008-08-02, 03:10:00,VALID,916.63,VALID,0,VALID,99.8319,VALID,0,VALID,16.6716,VALID,156,VALID,0,
2008-08-02, 03:11:00,VALID,916.632,VALID,0,VALID,100,VALID,0.0169808,VALID,16.736,VALID,144,VALID,0,
2008-08-02, 03:12:00,VALID,916.612,VALID,0,VALID,100,VALID,0,VALID,16.9084,VALID,129,VALID,0,
2008-08-02, 03:13:00,VALID,916.606,VALID,0,VALID,100,VALID,0,VALID,16.9828,VALID,119,VALID,0,
2008-08-02, 03:14:00,VALID,916.596,VALID,0,VALID,100,VALID,-0.0169808,VALID,17.0018,VALID,120,VALID,0.000181686,
2008-08-02, 03:15:00,VALID,916.595,VALID,0,VALID,100,VALID,0,VALID,17.0796,VALID,120,VALID,0.00090843,
2008-08-02, 03:16:00,VALID,916.585,VALID,0,VALID,100,VALID,0,VALID,17.1645,VALID,120,VALID,0,
2008-08-02, 03:17:00,VALID,916.57,VALID,0,VALID,100,VALID,-0.0169808,VALID,17.1736,VALID,120,VALID,0,
2008-08-02, 03:18:00,VALID,916.563,VALID,0,VALID,100,VALID,0,VALID,17.1088,VALID,120,VALID,0,
2008-08-02, 03:19:00,VALID,916.548,VALID,0,VALID,100,VALID,0,VALID,17.0537,VALID,120,VALID,0,
2008-08-02, 03:20:00,VALID,916.53,VALID,0,VALID,100,VALID,-0.0169808,VALID,17.0083,VALID,120,VALID,0,
2008-08-02, 03:21:00,VALID,916.516,VALID,0,VALID,100,VALID,-0.0169808,VALID,17.0182,VALID,120,VALID,0,
2008-08-02, 03:22:00,VALID,916.485,VALID,0,VALID,100,VALID,0.0169808,VALID,17.0083,VALID,120,VALID,0,
2008-08-02, 03:23:00,VALID,916.482,VALID,0,VALID,100,VALID,-0.0169808,VALID,17.0018,VALID,120,VALID,0,
2008-08-02, 03:24:00,VALID,916.482,VALID,0,VALID,100,VALID,0.0169808,VALID,16.989,VALID,120,VALID,0,
2008-08-02, 03:25:00,VALID,916.485,VALID,0,VALID,100,VALID,0.0509425,VALID,16.9238,VALID,120,VALID,0,
2008-08-02, 03:26:00,VALID,916.47,VALID,0,VALID,100,VALID,0,VALID,16.8559,VALID,120,VALID,0,
2008-08-02, 03:27:00,VALID,916.475,VALID,0,VALID,100,VALID,0.0339617,VALID,16.8721,VALID,121,VALID,0,
2008-08-02, 03:28:00,VALID,916.474,VALID,0,VALID,100,VALID,0,VALID,16.8849,VALID,128,VALID,0,
2008-08-02, 03:29:01,VALID,916.471,VALID,0,VALID,100,VALID,0,VALID,16.9045,VALID,129,VALID,0,
2008-08-02, 03:30:01,VALID,916.485,VALID,0,VALID,100,VALID,-0.0169808,VALID,16.9277,VALID,131,VALID,0,
2008-08-02, 03:31:00,VALID,916.477,VALID,0,VALID,100,VALID,0.0169808,VALID,16.989,VALID,131,VALID,0,
2008-08-02, 03:32:00,VALID,916.469,VALID,0,VALID,100,VALID,0.0169808,VALID,17.0212,VALID,131,VALID,0,
2008-08-02, 03:33:00,VALID,916.475,VALID,0,VALID,100,VALID,0.0169808,VALID,17.0081,VALID,131,VALID,0,
2008-08-02, 03:34:01,VALID,916.493,VALID,0,VALID,100,VALID,0,VALID,16.9821,VALID,131,VALID,0,
2008-08-02, 03:35:00,VALID,916.503,VALID,0,VALID,100,VALID,-0.0339617,VALID,16.9467,VALID,131,VALID,0,
2008-08-02, 03:36:00,VALID,916.509,VALID,0,VALID,100,VALID,0,VALID,16.9309,VALID,131,VALID,0,
2008-08-02, 03:37:01,VALID,916.512,VALID,0,VALID,100,VALID,-0.0169808,VALID,16.8886,VALID,131,VALID,0,
2008-08-02, 03:38:00,VALID,916.518,VALID,0,VALID,100,VALID,0.0169808,VALID,16.8302,VALID,131,VALID,0,
2008-08-02, 03:39:01,VALID,916.49,VALID,0,VALID,100,VALID,-0.0169808,VALID,16.7621,VALID,131,VALID,0,
2008-08-02, 03:40:01,VALID,916.483,VALID,0,VALID,100,VALID,0,VALID,16.7232,VALID,131,VALID,0,
2008-08-02, 03:41:00,VALID,916.5,VALID,0,VALID,100,VALID,0.0169808,VALID,16.7168,VALID,131,VALID,0,
2008-08-02, 03:42:00,VALID,916.516,VALID,0,VALID,100,VALID,0,VALID,16.6969,VALID,131,VALID,0,
2008-08-02, 03:43:01,VALID,916.538,VALID,0,VALID,100,VALID,0.0339617,VALID,16.6515,VALID,131,VALID,0,
2008-08-02, 03:44:00,VALID,916.548,VALID,0,VALID,100,VALID,0.0169808,VALID,16.6256,VALID,131,VALID,0,
2008-08-02, 03:45:00,VALID,916.563,VALID,0,VALID,100,VALID,0.0169808,VALID,16.6418,VALID,131,VALID,0,
2008-08-02, 03:46:00,VALID,916.548,VALID,0,VALID,100,VALID,0.0169808,VALID,16.7038,VALID,131,VALID,0,
2008-08-02, 03:47:01,VALID,916.54,VALID,0,VALID,100,VALID,0,VALID,16.736,VALID,131,VALID,0,
2008-08-02, 03:48:00,VALID,916.523,VALID,0,VALID,100,VALID,0.0169808,VALID,16.8561,VALID,131,VALID,0,
2008-08-02, 03:49:01,VALID,916.512,VALID,0,VALID,100,VALID,-0.0169808,VALID,16.9534,VALID,131,VALID,0,
2008-08-02, 03:50:00,VALID,916.528,VALID,0,VALID,100,VALID,-0.0339617,VALID,16.9918,VALID,131,VALID,0,
2008-08-02, 03:51:01,VALID,916.522,VALID,0,VALID,100,VALID,0.0169808,VALID,17.0083,VALID,128,VALID,0,